Location: Kaiser
(34.0939°N, 117.4889°W)
Time: 02:52:30
(UTC+00:00)

YAOGAN 6 - Pass Details

Date: 29 October 2020
Orbit: 465 x 504 km, 97.0° (Epoch: 26 November)

Event Time Altitude Azimuth Distance (km) Brightness Sun altitude
Rises 13:26:47 0° 18° (NNE) 2,592 6.4 -9.0°
Reaches altitude 10° 13:28:57 10° 25° (NNE) 1,699 5.5 -8.6°
Maximum altitude 13:32:27 43° 99° (E) 698 4.0 -7.9°
Drops below altitude 10° 13:35:53 10° 172° (S) 1,667 5.6 -7.2°
Sets 13:38:00 0° 179° (S) 2,536 6.4 -6.8°
